Wind_Speed
9 10 10 13 13 14 14 15 14 12 11 10 8 7 6 5 3 2 1 0 1 1 1 2 1 2 4 6 4 15 15 11 11 16 16 19 8 8 7 10 9 5 6 4 2
10 9 9 10 10 11 13 12 11 10 10 9 9 9 9 8 6 5 4 2 3 3 1 2 2 6 5 3 8 12 16 15 12 13 7 11 11 9 9 10 8 4 5 4 2
9 9 8 7 8 9 9 9 8 8 8 7 8 9 9 10 6 7 5 2 4 4 4 4 4 11 5 4 11 8 9 13 15 10 3 5 8 12 15 11 4 3 5 4 4
6 8 8 8 7 7 7 7 6 6 6 6 7 9 10 10 9 9 6 5 4 4 6 6 5 9 6 7 4 4 10 14 14 12 3 8 11 15 12 8 3 3 6 6 4
3 4 6 6 6 6 7 6 4 4 5 5 7 9 11 11 11 10 8 6 6 5 7 8 5 7 3 1 9 6 7 13 14 13 10 6 15 19 16 10 4 2 5 3 7
2 2 3 4 4 4 5 4 2 1 2 4 6 8 10 12 12 10 9 8 7 6 8 7 10 11 6 9 10 0 2 6 10 9 10 3 7 18 12 10 8 6 4 4 3
1 1 3 3 4 4 4 3 3 3 3 4 6 8 11 12 13 11 10 9 8 8 7 9 12 3 6 4 5 4 3 5 6 8 9 6 7 23 11 10 4 7 2 6 3
3 3 3 4 5 6 5 5 5 5 5 5 5 7 10 13 14 12 10 9 10 9 6 8 10 12 8 10 7 6 1 7 4 4 7 9 11 1 11 11 5 6 2 3 3
8 8 7 7 7 7 8 8 8 8 7 6 5 6 9 12 13 13 11 9 10 10 7 9 9 11 14 9 9 4 5 7 2 7 10 9 8 13 7 11 5 7 4 7 3
10 10 10 9 9 9 10 10 10 10 9 7 6 7 8 10 12 13 12 9 10 9 7 8 11 13 15 10 11 8 5 10 7 6 7 4 7 5 6 4 13 10 8 8 5
10 11 12 11 11 11 12 12 12 11 11 10 9 8 9 10 12 13 13 10 9 8 8 8 12 13 11 8 6 5 7 14 8 3 7 11 10 7 2 4 4 9 13 12 9
12 11 11 10 10 11 12 12 14 13 13 12 11 11 12 11 11 11 13 11 9 10 11 8 11 12 11 5 5 1 8 10 9 11 11 10 13 8 4 5 5 5 7 12 12
16 16 16 15 14 14 14 14 14 14 14 15 14 13 15 11 10 10 11 10 9 11 12 11 14 5 7 8 9 5 10 9 21 16 19 14 12 8 9 12 6 3 9 11 10
22 21 21 20 20 19 18 19 18 18 19 19 16 16 16 13 12 10 11 11 9 10 12 12 14 9 16 20 11 7 10 13 13 21 13 13 11 13 18 9 15 11 8 11 8
31 30 28 28 27 25 23 23 23 22 23 25 20 17 15 14 13 10 10 11 10 10 12 11 11 17 15 17 16 13 15 13 12 20 16 10 15 9 18 10 17 19 13 9 9
24 26 30 33 34 33 30 30 29 28 25 26 23 17 15 16 14 12 10 10 11 10 10 11 9 9 15 11 16 10 11 9 9 16 9 7 16 10 16 19 18 8 7 9 9
26 27 27 25 28 31 33 33 31 28 21 20 20 21 17 15 16 12 10 9 10 8 1 2 5 2 8 10 11 19 14 10 7 10 14 11 10 13 11 16 14 14 18 13 9
23 21 24 26 24 25 25 26 24 15 17 3 14 22 24 17 18 14 8 7 9 11 12 7 11 16 15 8 6 1 10 8 12 15 6 10 15 11 15 14 9 7 4 9 11
26 22 24 23 25 28 28 23 13 11 20 30 22 16 22 26 18 15 9 5 9 10 11 10 9 20 21 11 12 8 8 7 5 10 18 6 7 13 18 16 16 16 8 8 10
28 27 25 25 29 28 30 24 20 17 27 37 31 28 22 23 13 15 15 7 2 12 18 15 6 8 14 11 14 12 17 12 7 11 15 18 8 12 21 23 21 22 16 16 14
29 30 25 28 28 29 27 24 24 24 27 37 34 37 29 25 20 21 17 17 14 12 24 19 12 15 12 13 3 17 13 13 9 7 17 20 7 21 12 17 23 22 16 11 3
32 32 29 27 30 29 26 29 29 26 31 32 34 41 37 33 34 33 31 28 13 22 25 24 18 10 9 17 17 8 12 3 10 5 17 18 16 10 5 14 21 22 15 6 5
32 34 37 32 29 31 30 31 30 28 29 35 31 35 40 41 38 38 34 28 19 26 20 27 26 21 21 16 18 11 16 14 15 19 17 17 11 13 13 20 22 15 10 9 10
36 36 39 36 32 34 33 33 30 30 29 32 33 36 36 43 40 41 41 30 29 27 26 23 32 31 26 13 25 23 21 23 20 19 18 22 25 18 15 20 17 1 6 9 9
35 36 37 37 37 35 33 33 33 35 33 34 36 34 32 34 44 41 42 34 30 25 20 27 25 30 23 25 21 30 25 10 15 20 26 22 17 25 10 14 16 4 5 11 13
35 33 36 36 40 40 36 33 35 35 38 36 36 34 33 37 37 45 43 36 36 28 35 32 32 24 30 29 18 20 20 13 21 25 29 31 27 21 12 11 20 13 17 16 11
33 32 34 32 35 39 39 36 38 37 38 36 38 37 40 39 44 46 53 49 49 40 32 34 31 24 36 30 22 20 17 19 13 21 21 29 32 31 23 25 20 14 16 14 14
Wind_Direction
90 86 103 112 104 104 106 106 100 90 80 74 64 56 50 36 9 355 348 334 220 238 211 43 48 127 191 226 61 347 334 301 263 248 230 251 217 248 302 318 341 20 10 44 116
92 96 108 118 114 111 113 110 100 86 71 65 58 53 48 41 42 20 1 314 269 247 221 184 32 279 220 217 24 6 338 346 11 15 319 238 238 246 282 305 316 332 9 55 58
96 95 102 120 130 127 120 117 102 80 68 60 53 46 39 30 26 7 354 344 269 246 232 239 201 240 259 53 14 344 337 348 3 328 330 265 245 244 250 280 302 317 341 27 78
102 97 99 107 125 138 135 126 104 79 60 57 46 37 30 22 12 354 341 323 284 246 230 237 231 248 254 46 350 287 344 344 352 347 297 248 231 222 227 240 299 343 331 358 11
128 116 113 115 125 138 145 141 120 76 49 40 29 22 21 10 1 347 335 314 291 269 235 229 247 252 117 58 250 290 338 345 359 359 357 316 230 220 219 232 238 342 289 333 322
163 168 157 142 139 150 162 170 158 69 20 13 9 11 14 6 355 343 330 311 291 275 255 237 228 244 194 195 241 152 6 340 14 24 356 326 220 210 201 208 229 221 275 302 296
208 222 220 212 198 195 201 212 237 277 312 337 352 0 1 4 351 342 325 309 294 274 261 254 241 195 206 193 86 343 312 328 18 19 19 8 208 204 220 159 277 242 263 294 26
276 265 255 247 238 233 236 244 252 265 285 306 328 349 355 353 348 339 326 303 292 283 259 233 248 177 209 293 258 255 149 319 341 46 28 3 19 193 264 228 247 244 232 293 357
274 272 266 262 256 248 248 252 258 264 269 285 304 333 341 345 342 343 332 305 290 286 256 243 229 197 226 243 216 215 274 274 268 44 22 32 46 30 266 215 274 274 237 251 281
273 270 267 267 264 260 258 260 263 260 258 268 280 309 329 343 340 342 336 310 291 286 260 221 225 219 217 214 197 356 337 239 310 39 21 118 354 84 96 201 211 256 262 258 229
272 271 269 268 268 266 264 269 267 257 255 257 271 296 320 331 341 339 333 311 291 280 252 215 217 225 214 301 210 113 330 305 350 14 341 338 316 344 192 188 249 284 238 239 237
272 271 271 266 266 267 269 269 266 261 258 258 271 295 309 321 334 330 332 313 292 270 251 217 192 234 214 341 13 240 243 335 289 341 322 310 327 319 16 24 346 267 236 223 221
266 266 265 266 265 265 268 272 275 273 268 267 271 284 297 307 317 311 320 315 295 271 250 196 190 145 295 311 290 56 307 287 316 321 330 339 10 350 273 309 325 292 246 228 285
268 264 264 263 264 264 270 272 272 274 271 268 272 279 289 291 302 304 306 319 291 263 246 216 187 156 242 229 236 126 233 280 280 292 329 331 344 346 353 312 337 316 272 248 271
269 267 264 266 266 266 267 270 272 275 279 278 277 280 284 284 290 288 295 312 291 260 245 219 196 202 228 233 217 178 261 266 266 279 289 298 313 332 327 328 318 317 279 277 286
274 272 268 265 265 267 266 267 269 272 281 280 280 280 271 279 281 286 281 297 288 267 236 218 182 266 269 224 209 170 255 291 225 249 263 283 295 317 311 344 336 268 294 280 276
281 273 270 268 267 265 263 262 262 265 263 279 295 295 280 271 268 272 265 286 283 265 229 43 318 31 296 195 177 216 220 230 223 225 231 254 251 259 292 344 341 304 276 284 253
284 281 270 267 269 270 265 262 262 266 240 176 310 292 302 299 263 264 249 279 263 242 153 46 13 343 312 310 166 305 184 262 326 358 127 225 234 279 319 328 337 349 269 243 259
290 289 277 272 268 259 260 258 251 249 208 193 204 245 279 290 279 263 247 238 263 245 216 174 258 281 283 304 195 177 201 284 305 351 321 223 163 285 317 349 344 356 317 257 253
286 286 283 276 268 263 260 256 250 246 213 217 213 204 204 275 278 254 273 252 241 236 175 168 236 233 275 278 226 208 195 227 221 297 295 291 141 284 308 316 334 349 12 346 271
289 282 281 274 268 267 264 259 247 231 226 227 227 206 205 205 230 257 276 287 281 295 186 174 194 264 221 259 286 234 210 223 188 281 296 312 279 282 288 310 319 339 359 357 221
283 283 281 273 268 265 262 254 250 244 236 237 230 226 217 206 206 219 216 238 235 275 210 186 192 237 255 238 266 288 150 142 210 249 270 267 269 238 274 305 315 324 335 349 313
284 276 274 268 267 265 257 251 249 242 234 244 248 241 228 222 220 216 216 209 205 251 261 205 216 202 227 221 227 261 179 208 214 238 257 269 257 309 258 286 298 312 332 4 11
281 272 272 273 266 266 263 257 251 245 231 237 243 235 237 222 227 215 222 203 218 206 248 231 223 216 220 234 227 213 218 217 214 221 248 243 257 265 239 265 286 18 4 355 348
279 276 270 271 268 264 265 266 258 240 237 228 234 241 244 238 217 221 223 226 199 200 208 228 231 219 214 252 249 204 216 197 227 226 253 259 258 246 214 281 275 196 39 343 315
281 276 273 267 265 265 263 255 249 244 239 234 234 230 229 232 232 218 220 216 219 197 206 223 237 243 217 241 243 231 179 155 215 225 229 248 264 277 281 262 263 248 309 307 290
286 282 276 271 265 262 261 253 247 242 236 237 232 233 222 224 228 224 220 211 221 216 220 224 223 225 217 229 248 247 217 216 214 251 244 240 248 258 261 254 256 286 291 301 306
Height
5884 5884 5883 5884 5884 5884 5885 5886 5886 5887 5887 5887 5886 5886 5886 5885 5885 5885 5886 5887 5886 5885 5885 5886 5884 5882 5882 5882 5880 5880 5880 5880 5879 5877 5881 5882 5883 5882 5878 5880 5878 5882 5882 5883 5882
5886 5886 5885 5886 5886 5886 5887 5887 5888 5888 5888 5888 5887 5887 5887 5886 5886 5885 5886 5885 5885 5884 5885 5885 5884 5884 5881 5881 5880 5879 5881 5880 5880 5877 5879 5879 5880 5880 5880 5882 5880 5880 5883 5883 5882
5888 5887 5887 5887 5887 5888 5888 5888 5888 5889 5888 5888 5888 5888 5887 5886 5886 5886 5885 5884 5884 5884 5884 5883 5883 5884 5880 5880 5882 5882 5882 5879 5882 5884 5880 5879 5879 5881 5880 5880 5881 5882 5880 5883 5884
5889 5889 5889 5889 5889 5889 5889 5889 5889 5889 5889 5889 5888 5888 5887 5887 5887 5884 5884 5883 5882 5883 5882 5882 5881 5882 5880 5880 5880 5884 5882 5879 5879 5880 5878 5880 5879 5882 5882 5881 5884 5882 5880 5879 5882
5889 5889 5890 5890 5890 5890 5890 5890 5890 5890 5889 5889 5888 5888 5887 5886 5885 5883 5882 5881 5881 5881 5880 5881 5882 5880 5879 5879 5880 5881 5881 5881 5879 5878 5876 5878 5878 5881 5881 5879 5882 5882 5882 5881 5879
5889 5889 5890 5890 5890 5890 5890 5890 5890 5890 5889 5889 5888 5887 5887 5886 5884 5882 5880 5879 5879 5879 5879 5880 5880 5878 5879 5877 5879 5878 5880 5882 5880 5879 5877 5876 5878 5881 5880 5880 5881 5883 5882 5883 5881
5889 5889 5889 5889 5889 5889 5889 5889 5889 5889 5889 5888 5887 5886 5886 5885 5882 5881 5879 5878 5877 5877 5878 5878 5877 5879 5876 5877 5874 5880 5880 5881 5880 5879 5878 5877 5878 5878 5882 5881 5882 5884 5882 5884 5884
5888 5888 5888 5888 5888 5888 5888 5888 5888 5888 5887 5887 5886 5885 5884 5883 5881 5880 5878 5876 5875 5875 5877 5877 5878 5879 5878 5877 5880 5879 5874 5882 5880 5878 5878 5878 5880 5878 5881 5881 5884 5883 5885 5885 5883
5887 5887 5887 5887 5887 5887 5887 5886 5886 5886 5885 5885 5885 5884 5883 5882 5881 5878 5876 5874 5873 5873 5874 5875 5876 5878 5876 5877 5880 5881 5883 5879 5880 5881 5883 5881 5880 5878 5877 5880 5884 5885 5886 5886 5884
5885 5885 5885 5885 5885 5884 5884 5884 5884 5884 5884 5883 5883 5884 5883 5881 5879 5877 5874 5873 5871 5872 5873 5874 5873 5872 5873 5876 5878 5880 5882 5882 5882 5881 5884 5883 5881 5878 5878 5879 5880 5886 5885 5888 5887
5883 5883 5883 5883 5882 5882 5882 5882 5883 5883 5881 5882 5882 5881 5880 5879 5877 5875 5873 5871 5870 5870 5870 5872 5871 5871 5873 5875 5877 5875 5880 5877 5881 5882 5886 5881 5882 5884 5881 5880 5881 5883 5884 5887 5890
5881 5880 5880 5880 5880 5879 5879 5879 5878 5879 5879 5879 5879 5877 5878 5876 5875 5873 5871 5870 5868 5868 5868 5871 5870 5872 5871 5875 5874 5877 5877 5878 5876 5880 5883 5882 5882 5884 5884 5882 5881 5881 5884 5886 5890
5878 5877 5877 5876 5876 5876 5875 5875 5875 5875 5876 5876 5876 5876 5875 5874 5873 5872 5870 5868 5867 5866 5866 5869 5868 5871 5873 5872 5876 5877 5874 5878 5873 5875 5881 5880 5884 5882 5885 5882 5879 5882 5881 5884 5885
5873 5873 5872 5872 5873 5872 5872 5871 5871 5871 5871 5873 5873 5873 5871 5870 5870 5869 5867 5866 5864 5864 5864 5865 5865 5868 5873 5873 5875 5876 5877 5877 5878 5878 5880 5879 5880 5878 5877 5878 5880 5883 5884 5884 5882
5866 5866 5867 5866 5866 5866 5868 5866 5866 5866 5867 5867 5869 5869 5867 5867 5868 5866 5865 5863 5862 5861 5862 5863 5864 5866 5867 5870 5873 5874 5876 5878 5878 5876 5880 5880 5878 5878 5876 5878 5880 5880 5881 5879 5881
5858 5857 5858 5859 5858 5859 5860 5860 5861 5863 5862 5858 5862 5862 5863 5862 5862 5862 5862 5862 5860 5858 5859 5861 5861 5865 5865 5868 5870 5874 5876 5875 5875 5875 5876 5877 5874 5877 5877 5883 5878 5877 5880 5879 5880
5851 5850 5849 5850 5850 5850 5851 5852 5854 5855 5857 5854 5856 5855 5856 5858 5857 5858 5859 5859 5858 5858 5858 5861 5863 5864 5865 5866 5869 5870 5873 5873 5874 5873 5872 5873 5873 5873 5876 5882 5880 5876 5874 5876 5878
5843 5843 5842 5842 5844 5842 5843 5845 5848 5853 5855 5854 5853 5849 5849 5853 5854 5853 5855 5856 5856 5856 5855 5859 5862 5864 5866 5866 5867 5870 5871 5872 5873 5873 5870 5871 5871 5871 5874 5876 5876 5875 5872 5871 5869
5836 5836 5835 5836 5835 5835 5837 5839 5845 5846 5850 5843 5846 5845 5848 5848 5850 5849 5851 5854 5853 5853 5854 5854 5859 5863 5863 5866 5867 5869 5870 5872 5874 5873 5870 5868 5865 5867 5869 5869 5869 5870 5869 5869 5866
5828 5828 5829 5828 5826 5827 5828 5834 5837 5839 5839 5838 5839 5843 5842 5846 5849 5848 5848 5850 5852 5853 5853 5855 5857 5861 5862 5864 5865 5866 5869 5869 5871 5870 5867 5864 5864 5866 5866 5866 5865 5868 5869 5868 5867
5821 5818 5822 5818 5819 5819 5821 5825 5825 5829 5830 5833 5836 5834 5835 5839 5845 5847 5847 5848 5849 5851 5852 5854 5857 5858 5861 5860 5863 5864 5867 5869 5871 5871 5868 5865 5868 5870 5871 5865 5864 5868 5870 5870 5871
5811 5809 5811 5810 5810 5810 5814 5813 5816 5820 5820 5822 5825 5828 5828 5831 5834 5836 5837 5845 5850 5849 5851 5851 5854 5855 5858 5859 5861 5862 5864 5867 5871 5872 5867 5866 5870 5867 5868 5865 5863 5866 5869 5870 5869
5801 5799 5797 5799 5801 5800 5802 5803 5805 5809 5812 5813 5815 5817 5821 5824 5827 5829 5832 5837 5841 5844 5847 5849 5848 5851 5852 5856 5858 5859 5861 5864 5866 5867 5866 5861 5865 5863 5864 5861 5863 5866 5865 5867 5867
5790 5788 5786 5789 5791 5789 5790 5792 5796 5798 5801 5803 5806 5809 5811 5815 5820 5824 5824 5831 5831 5833 5838 5842 5843 5846 5848 5851 5849 5852 5855 5857 5862 5863 5862 5861 5858 5861 5859 5860 5862 5863 5863 5865 5868
5778 5777 5776 5776 5777 5779 5781 5782 5785 5786 5789 5791 5793 5798 5802 5803 5809 5816 5820 5822 5824 5826 5832 5835 5838 5842 5843 5841 5840 5845 5851 5853 5856 5860 5857 5855 5855 5856 5856 5860 5859 5862 5863 5866 5867
5768 5767 5765 5766 5764 5765 5768 5769 5771 5774 5776 5779 5783 5788 5793 5795 5801 5807 5812 5815 5811 5817 5820 5825 5830 5837 5840 5835 5840 5839 5839 5846 5852 5853 5853 5850 5848 5849 5854 5858 5858 5861 5859 5861 5864
5756 5755 5754 5754 5753 5752 5754 5757 5757 5762 5766 5770 5771 5775 5778 5783 5784 5790 5798 5804 5804 5809 5815 5818 5822 5828 5832 5832 5833 5837 5843 5845 5846 5849 5851 5848 5848 5847 5850 5852 5856 5856 5855 5857 5859